This is the latest recevied weather packets stored in our database for station/object N6SPP. If no packets are shown the sender has not sent any weather packets the latest 10 day(s).
| Time | Temp. | Humidity | Pressure | Rain* | Wind** | Luminosity | Snow |
|---|---|---|---|---|---|---|---|
| 1777416743 | 22.78° C | 44% | 1019.9 hPa | 0 mm | - | 532 W/m² | - |
| 1777416439 | 23.33° C | 43% | 1020 hPa | 0 mm | - | 105 W/m² | - |
| 1777416135 | 23.33° C | 41% | 1020 hPa | 0 mm | - | 560 W/m² | - |
| 1777415829 | 22.78° C | 43% | 1020.1 hPa | 0 mm | - | 562 W/m² | - |
| 1777415525 | 22.78° C | 43% | 1019.9 hPa | 0 mm | - | 580 W/m² | - |
| 1777415221 | 22.78° C | 42% | 1020.3 hPa | 0 mm | - | 585 W/m² | - |
| 1777414916 | 22.22° C | 43% | 1020 hPa | 0 mm | - | 603 W/m² | - |
| 1777414615 | 23.33° C | 43% | 1020 hPa | 0 mm | - | 612 W/m² | - |
| 1777414310 | 22.78° C | 43% | 1020.2 hPa | 0 mm | - | 620 W/m² | - |
| 1777414005 | 22.78° C | 42% | 1020.5 hPa | 0 mm | - | 635 W/m² | - |
| 1777413700 | 22.78° C | 42% | 1020.4 hPa | 0 mm | - | 642 W/m² | - |
| 1777413396 | 22.78° C | 42% | 1020.5 hPa | 0 mm | - | 354 W/m² | - |
| 1777413092 | 22.78° C | 43% | 1020.4 hPa | 0 mm | - | 661 W/m² | - |
| 1777412787 | 23.33° C | 41% | 1020.7 hPa | 0 mm | - | 670 W/m² | - |
| 1777412481 | 22.22° C | 43% | 1020.7 hPa | 0 mm | - | 675 W/m² | - |
| 1777412178 | 22.22° C | 42% | 1020.8 hPa | 0 mm | - | 687 W/m² | - |
| 1777411875 | 22.78° C | 42% | 1020.8 hPa | 0 mm | - | 693 W/m² | - |
| 1777411573 | 22.22° C | 43% | 1020.8 hPa | 0 mm | - | 701 W/m² | - |
| 1777411269 | 23.33° C | 42% | 1021 hPa | 0 mm | - | 711 W/m² | - |
| 1777410962 | 23.33° C | 43% | 1021.1 hPa | 0 mm | - | 714 W/m² | - |
| 1777410662 | 22.78° C | 42% | 1021 hPa | 0 mm | - | 721 W/m² | - |
| 1777410357 | 22.78° C | 43% | 1021.1 hPa | 0 mm | - | 727 W/m² | - |
| 1777410051 | 22.22° C | 44% | 1021.1 hPa | 0 mm | - | 732 W/m² | - |
| 1777409746 | 22.22° C | 45% | 1021.2 hPa | 0 mm | - | 736 W/m² | - |
| 1777409443 | 21.67° C | 47% | 1021.3 hPa | 0 mm | - | 742 W/m² | - |
* Rain latest hour (hover to see other rain measurements)
** Current wind speed in m/s (hover to see current wind gust speed)